Regional Weather Roundup
Issued by NWS

Home | Current Version | Previous Version | Graphics & Text | Print | Product List | Glossary On
Versions: 1 2 3 4 5 6 7 8 9 10 11 12 13 14 15 16 17 18 19 20 21 22 23 24 25 26 27 28 29 30 31 32 33 34 35 36 37 38 39 40 41 42 43 44 45 46 47 48 49 50
000
ASUS43 KDMX 021007
RWRIA

WEATHER ROUNDUP FOR IOWA
NATIONAL WEATHER SERVICE DES MOINES IA
500 AM CDT WED SEP 02 2015

NOTE: "FAIR" INDICATES FEW OR NO CLOUDS BELOW 12,000 FEET WITH NO
SIGNIFICANT WEATHER AND/OR OBSTRUCTIONS TO VISIBILITY.

* - THESE STATIONS ARE NOT NWS STATIONS...THUS NOT UNDER NWS
QUALITY CONTROL.  THEY ALSO DO NOT REPORT WEATHER SUCH
AS PRECIPITATION OR FOG.

IAZ001>003-012>014-020>022-031>034-043>046-021100-
   NORTHWEST IOWA

CITY           SKY/WX    TMP DP  RH WIND       PRES   REMARKS
CARROLL *      PTCLDY    73  68  83 S15G24    29.93R
CHEROKEE *     CLEAR     72  68  88 S7        29.89S
DENISON *      CLEAR     72  68  88 S16G24    29.90R
LE MARS *      CLEAR     70  68  94 S9        29.87S
ORANGE CITY *  CLEAR     70  66  88 S7        29.88R
SHELDON *      CLEAR     68  66  94 SE6       29.88R
SIOUX CITY     CLEAR     69  63  81 E8        29.87R
SPENCER        CLEAR     71  66  84 SE8       29.91R HAZE
STORM LAKE *   CLEAR     70  68  94 S10       29.92R
$$

IAZ055>058-069>071-079>083-090>094-021100-
   SOUTHWEST IOWA

CITY           SKY/WX    TMP DP  RH WIND       PRES   REMARKS
ATLANTIC *     MOCLDY    73  70  88 SE12G18   29.94S
AUDUBON *      PTCLDY    72  66  83 S10G17    29.96S
CLARINDA *     CLOUDY    72  72 100 S10       29.98F
COUNCIL BLFS * MOCLDY    72  70  94 SE15      29.92S
CRESTON *      LGT RAIN  70  68  94 CALM      30.04S
LAMONI         RAIN      71  68  90 NW5       30.02R FOG
RED OAK *      CLOUDY    72  70  94 SE8       29.95R
SHENANDOAH *   MOCLDY    75  70  83 SE15      29.94S
$$

IAZ047>049-059>061-072>074-084-021100-
   CENTRAL IOWA

CITY           SKY/WX    TMP DP  RH WIND       PRES   REMARKS
AMES           TSTM      70  68  93 W5        30.00S FOG
ANKENY *       LGT RAIN  72  70  94 W7        29.99R
CHARITON *     CLOUDY    72  66  83 SW7       30.01R
DES MOINES     TSTM      72  68  87 NW9       29.98S
GRINNELL*      CLOUDY    70  66  88 SW3       30.01R
KNOXVILLE *    CLOUDY    72  66  83 W3        29.99R
MARSHALLTOWN   LGT RAIN  71  68  90 S9        29.98R
PELLA *        CLOUDY    70  70 100 CALM      30.01R
PERRY *        CLOUDY    72  68  88 SE8       29.98R
$$

IAZ004>006-015-016-023>025-035-036-021100-
   NORTH CENTRAL IOWA

CITY           SKY/WX    TMP DP  RH WIND       PRES   REMARKS
ALGONA *       CLOUDY    72  68  88 S12       29.94R
CLARION *      CLOUDY    70  66  88 S15       29.96R
ESTHERVILLE    CLEAR     69  67  93 S10       29.91R
FORT DODGE *   MOCLDY    72  64  78 S12       29.95S
MASON CITY     CLOUDY    71  67  87 S10       29.95F
FOREST CITY *  CLOUDY    70  68  94 S7        29.93F
IOWA FALLS *   LGT RAIN  70  68  94 CALM      29.99S
$$

IAZ007>011-017>019-026>030-037>042-050>054-066-021100-
   NORTHEAST IOWA

CITY           SKY/WX    TMP DP  RH WIND       PRES   REMARKS
CEDAR RAPIDS   PTCLDY    69  69 100 S5        30.00S
CHARLES CITY * PTCLDY    70  70 100 S6        29.98F
CLINTON *      CLEAR     70  66  88 S5        30.04S
DECORAH *      CLEAR     72  68  88 S8        29.98S
DUBUQUE        CLEAR     67  66  97 SW5       30.02S FOG
MONTICELLO *   CLEAR     66  66 100 CALM      30.01S
OELWEIN *        N/A     70  68  94 S7        30.00S
WATERLOO       CLOUDY    72  67  84 S8        29.97S
$$

IAZ064-065-067-068-078-021100-
   EAST CENTRAL IOWA

CITY           SKY/WX    TMP DP  RH WIND       PRES   REMARKS
DAVENPORT      CLEAR     71  67  87 S7        30.02S
IOWA CITY      PTCLDY    68  67  96 CALM      30.02R
MT. PLEASANT * MOCLDY    72  66  83 S3        30.02S
MUSCATINE *    CLEAR     68  64  88 CALM      30.02R FOG
QUAD CITIES    CLEAR     71  66  84 CALM      30.01F
$$

IAZ062-063-075>077-085>089-095>099-021100-
   SOUTHEAST IOWA

CITY           SKY/WX    TMP DP  RH WIND       PRES   REMARKS
BURLINGTON     PTCLDY    70  68  93 SW6       30.03R
FAIRFIELD *    CLEAR     72  68  88 S6        30.01S
FORT MADISON * CLEAR     73  72  94 S7        30.04R
KEOKUK *       CLEAR     72  68  88 S7        30.02S
OSKALOOSA *      N/A     68  66  94 S3        30.01R FOG
CENTERVILLE *  CLEAR     68  66  94 S5        30.03S
OTTUMWA        CLOUDY    71  69  93 S7        29.98S
WASHINGTON *     N/A    N/A N/A N/A MISG        N/A
$$

ABBREVIATIONS USED IN REMARKS
   TC - TEMPERATURES IN CELSIUS
  WCI - WIND CHILL INDEX
   HX - HEAT INDEX
  VSB - VISIBILITY
$$




USA.gov is the U.S. government's official web portal to all federal, state and local government web resources and services.